LOCATION_NAME,SAMPLE COLLECTION TIME,DOSE EQUIVALENT RATE (nSv/h),GAMMA COUNT RATE R02 (CPM),GAMMA COUNT RATE R03 (CPM),GAMMA COUNT RATE R04 (CPM),GAMMA COUNT RATE R05 (CPM),GAMMA COUNT RATE R06 (CPM),GAMMA COUNT RATE R07 (CPM),GAMMA COUNT RATE R08 (CPM),GAMMA COUNT RATE R09 (CPM),STATUS
NE: OMAHA,01/01/2016 00:07:00,,2359.00,1487.00,386.00,235.00,127.00,161.00,93.00,37.00,APPROVED
NE: OMAHA,01/01/2016 01:07:00,,2329.00,1470.00,382.00,236.00,124.00,157.00,93.00,37.00,APPROVED
NE: OMAHA,01/01/2016 02:07:00,,2306.00,1441.00,373.00,233.00,120.00,153.00,93.00,36.00,APPROVED
NE: OMAHA,01/01/2016 03:07:00,,2275.00,1411.00,371.00,221.00,119.00,149.00,91.00,34.00,APPROVED
NE: OMAHA,01/01/2016 04:08:00,,2211.00,1352.00,350.00,211.00,114.00,144.00,87.00,33.00,APPROVED
NE: OMAHA,01/01/2016 05:08:00,,2167.00,1312.00,345.00,201.00,110.00,139.00,84.00,33.00,APPROVED
NE: OMAHA,01/01/2016 06:08:00,,2158.00,1284.00,335.00,191.00,107.00,132.00,83.00,33.00,APPROVED
NE: OMAHA,01/01/2016 07:08:00,,2123.00,1261.00,329.00,185.00,107.00,128.00,81.00,32.00,APPROVED
NE: OMAHA,01/01/2016 08:08:00,,2100.00,1234.00,324.00,179.00,104.00,126.00,78.00,32.00,APPROVED
NE: OMAHA,01/01/2016 09:09:00,,2106.00,1223.00,326.00,178.00,104.00,124.00,79.00,32.00,APPROVED
NE: OMAHA,01/01/2016 10:09:00,,2096.00,1239.00,324.00,175.00,105.00,128.00,80.00,30.00,APPROVED
NE: OMAHA,01/01/2016 11:09:00,,2103.00,1234.00,323.00,176.00,104.00,125.00,77.00,32.00,APPROVED
NE: OMAHA,01/01/2016 12:09:00,,2086.00,1228.00,324.00,176.00,107.00,127.00,80.00,31.00,APPROVED
NE: OMAHA,01/01/2016 13:09:00,,2104.00,1231.00,324.00,180.00,105.00,126.00,80.00,32.00,APPROVED
NE: OMAHA,01/01/2016 14:10:00,,2089.00,1237.00,327.00,179.00,107.00,130.00,81.00,31.00,APPROVED
NE: OMAHA,01/01/2016 15:10:00,,2101.00,1244.00,326.00,182.00,105.00,129.00,81.00,33.00,APPROVED
NE: OMAHA,01/01/2016 16:10:00,,2115.00,1233.00,330.00,183.00,108.00,127.00,81.00,32.00,APPROVED
NE: OMAHA,01/01/2016 17:10:00,,2141.00,1257.00,332.00,187.00,107.00,130.00,80.00,33.00,APPROVED
NE: OMAHA,01/01/2016 18:10:00,,2178.00,1312.00,339.00,198.00,110.00,136.00,85.00,33.00,APPROVED
NE: OMAHA,01/01/2016 19:11:00,,2208.00,1338.00,348.00,202.00,112.00,142.00,86.00,33.00,APPROVED
NE: OMAHA,01/01/2016 20:11:00,,2218.00,1357.00,358.00,210.00,114.00,145.00,87.00,35.00,APPROVED
NE: OMAHA,01/01/2016 21:11:00,,2224.00,1356.00,357.00,208.00,116.00,142.00,87.00,34.00,APPROVED
NE: OMAHA,01/01/2016 22:11:00,,2218.00,1354.00,353.00,204.00,114.00,141.00,87.00,32.00,APPROVED
NE: OMAHA,01/01/2016 23:11:00,,2234.00,1360.00,356.00,201.00,112.00,141.00,86.00,34.00,APPROVED
NE: OMAHA,01/02/2016 00:12:00,,2239.00,1341.00,351.00,202.00,113.00,138.00,86.00,34.00,APPROVED
NE: OMAHA,01/02/2016 01:12:00,,2213.00,1324.00,344.00,197.00,113.00,137.00,86.00,33.00,APPROVED
NE: OMAHA,01/02/2016 02:12:00,,2200.00,1322.00,344.00,194.00,110.00,136.00,83.00,33.00,APPROVED
NE: OMAHA,01/02/2016 03:12:00,,2211.00,1321.00,342.00,193.00,109.00,135.00,83.00,34.00,APPROVED
NE: OMAHA,01/02/2016 04:12:00,,2224.00,1339.00,346.00,198.00,113.00,136.00,82.00,33.00,APPROVED
NE: OMAHA,01/02/2016 05:13:00,,2248.00,1350.00,346.00,196.00,113.00,136.00,84.00,33.00,APPROVED
NE: OMAHA,01/02/2016 06:13:00,,2264.00,1357.00,352.00,200.00,114.00,139.00,86.00,33.00,APPROVED
NE: OMAHA,01/02/2016 07:13:00,,2262.00,1350.00,356.00,200.00,112.00,137.00,84.00,34.00,APPROVED
NE: OMAHA,01/02/2016 08:13:00,,2275.00,1361.00,352.00,199.00,113.00,138.00,84.00,33.00,APPROVED
NE: OMAHA,01/02/2016 09:13:00,,2268.00,1368.00,355.00,199.00,116.00,138.00,84.00,33.00,APPROVED
NE: OMAHA,01/02/2016 10:14:00,,2281.00,1377.00,358.00,204.00,116.00,141.00,88.00,34.00,APPROVED
NE: OMAHA,01/02/2016 11:14:00,,2282.00,1386.00,359.00,204.00,114.00,140.00,88.00,34.00,APPROVED
NE: OMAHA,01/02/2016 12:14:00,,2290.00,1401.00,360.00,211.00,116.00,142.00,89.00,34.00,APPROVED
NE: OMAHA,01/02/2016 13:14:00,,2300.00,1401.00,361.00,213.00,115.00,146.00,89.00,35.00,APPROVED
NE: OMAHA,01/02/2016 14:14:00,,2308.00,1410.00,369.00,213.00,118.00,147.00,90.00,34.00,APPROVED
NE: OMAHA,01/02/2016 15:15:00,,2302.00,1399.00,363.00,211.00,119.00,145.00,88.00,36.00,APPROVED
NE: OMAHA,01/02/2016 16:15:00,,2290.00,1398.00,360.00,207.00,117.00,143.00,89.00,36.00,APPROVED
NE: OMAHA,01/02/2016 17:15:00,,2273.00,1374.00,360.00,204.00,115.00,141.00,89.00,34.00,APPROVED
NE: OMAHA,01/02/2016 18:15:00,,2235.00,1359.00,354.00,202.00,113.00,143.00,84.00,34.00,APPROVED
NE: OMAHA,01/02/2016 19:15:00,,2204.00,1334.00,352.00,201.00,113.00,140.00,86.00,33.00,APPROVED
NE: OMAHA,01/02/2016 20:16:00,,2217.00,1344.00,357.00,197.00,113.00,142.00,84.00,34.00,APPROVED
NE: OMAHA,01/02/2016 21:16:00,,2212.00,1345.00,351.00,199.00,114.00,142.00,84.00,34.00,APPROVED
NE: OMAHA,01/02/2016 22:16:00,,2223.00,1334.00,361.00,199.00,114.00,140.00,86.00,33.00,APPROVED
NE: OMAHA,01/02/2016 23:16:00,,2262.00,1364.00,356.00,204.00,115.00,138.00,86.00,34.00,APPROVED
NE: OMAHA,01/03/2016 00:16:00,,2270.00,1366.00,357.00,205.00,115.00,141.00,85.00,34.00,APPROVED
NE: OMAHA,01/03/2016 01:17:00,,2279.00,1379.00,358.00,204.00,117.00,142.00,85.00,34.00,APPROVED
NE: OMAHA,01/03/2016 02:17:00,,2267.00,1372.00,364.00,203.00,116.00,142.00,86.00,33.00,APPROVED
NE: OMAHA,01/03/2016 03:17:00,,2297.00,1385.00,363.00,207.00,113.00,142.00,84.00,33.00,APPROVED
NE: OMAHA,01/03/2016 04:17:00,,2311.00,1413.00,366.00,212.00,118.00,143.00,86.00,34.00,APPROVED
NE: OMAHA,01/03/2016 05:17:00,,2318.00,1418.00,370.00,213.00,117.00,146.00,88.00,35.00,APPROVED
NE: OMAHA,01/03/2016 06:18:00,,2323.00,1426.00,367.00,216.00,120.00,146.00,89.00,34.00,APPROVED
NE: OMAHA,01/03/2016 07:18:00,,2336.00,1434.00,372.00,215.00,119.00,149.00,90.00,34.00,APPROVED
NE: OMAHA,01/03/2016 08:18:00,,2322.00,1426.00,367.00,217.00,120.00,145.00,90.00,35.00,APPROVED
NE: OMAHA,01/03/2016 09:18:00,,2301.00,1436.00,367.00,215.00,118.00,148.00,89.00,35.00,APPROVED
NE: OMAHA,01/03/2016 10:18:00,,2317.00,1428.00,368.00,218.00,121.00,145.00,89.00,36.00,APPROVED
NE: OMAHA,01/03/2016 11:19:00,,2317.00,1417.00,370.00,218.00,118.00,145.00,87.00,36.00,APPROVED
NE: OMAHA,01/03/2016 12:19:00,,2285.00,1429.00,367.00,216.00,117.00,145.00,90.00,35.00,APPROVED
NE: OMAHA,01/03/2016 13:19:00,,2302.00,1428.00,366.00,222.00,117.00,150.00,89.00,35.00,APPROVED
NE: OMAHA,01/03/2016 14:19:00,,2292.00,1433.00,368.00,218.00,122.00,148.00,92.00,35.00,APPROVED
NE: OMAHA,01/03/2016 15:19:00,,2301.00,1429.00,371.00,218.00,118.00,149.00,91.00,37.00,APPROVED
NE: OMAHA,01/03/2016 16:20:00,,2301.00,1420.00,370.00,217.00,119.00,148.00,87.00,34.00,APPROVED
NE: OMAHA,01/03/2016 17:20:00,,2284.00,1396.00,363.00,214.00,118.00,144.00,90.00,36.00,APPROVED
NE: OMAHA,01/03/2016 18:20:00,,2295.00,1403.00,368.00,216.00,117.00,147.00,91.00,35.00,APPROVED
NE: OMAHA,01/03/2016 19:20:00,,2297.00,1422.00,367.00,216.00,119.00,148.00,88.00,36.00,APPROVED
NE: OMAHA,01/03/2016 20:20:00,,2322.00,1435.00,375.00,224.00,121.00,147.00,89.00,35.00,APPROVED
NE: OMAHA,01/03/2016 21:21:00,,2340.00,1475.00,384.00,229.00,121.00,153.00,93.00,36.00,APPROVED
NE: OMAHA,01/03/2016 22:21:00,,2339.00,1475.00,382.00,234.00,124.00,160.00,95.00,35.00,APPROVED
NE: OMAHA,01/03/2016 23:21:00,,2326.00,1498.00,385.00,240.00,127.00,161.00,96.00,38.00,APPROVED
NE: OMAHA,01/04/2016 00:21:00,,2343.00,1547.00,395.00,261.00,132.00,170.00,102.00,40.00,APPROVED
NE: OMAHA,01/04/2016 01:21:00,,2323.00,1529.00,400.00,261.00,133.00,174.00,102.00,39.00,APPROVED
NE: OMAHA,01/04/2016 02:22:00,,2293.00,1506.00,393.00,263.00,129.00,168.00,100.00,38.00,APPROVED
NE: OMAHA,01/04/2016 03:22:00,,2305.00,1527.00,399.00,266.00,132.00,171.00,100.00,39.00,APPROVED
NE: OMAHA,01/04/2016 04:22:00,,2299.00,1531.00,398.00,263.00,133.00,169.00,101.00,40.00,APPROVED
NE: OMAHA,01/04/2016 05:22:00,,2288.00,1513.00,395.00,261.00,130.00,168.00,100.00,38.00,APPROVED
NE: OMAHA,01/04/2016 07:23:00,,2248.00,1478.00,390.00,251.00,131.00,165.00,98.00,39.00,APPROVED
NE: OMAHA,01/04/2016 08:23:00,,2227.00,1438.00,384.00,242.00,126.00,164.00,94.00,38.00,APPROVED
NE: OMAHA,01/04/2016 09:23:00,,2186.00,1382.00,366.00,229.00,122.00,153.00,94.00,37.00,APPROVED
NE: OMAHA,01/04/2016 10:23:00,,2179.00,1373.00,364.00,223.00,121.00,150.00,89.00,36.00,APPROVED
NE: OMAHA,01/04/2016 11:23:00,,2173.00,1365.00,359.00,219.00,118.00,148.00,92.00,34.00,APPROVED
NE: OMAHA,01/04/2016 12:24:00,,2166.00,1365.00,362.00,226.00,122.00,149.00,90.00,36.00,APPROVED
NE: OMAHA,01/04/2016 13:24:00,,2163.00,1365.00,362.00,224.00,119.00,151.00,90.00,35.00,APPROVED
NE: OMAHA,01/04/2016 14:24:00,,2156.00,1352.00,359.00,223.00,117.00,150.00,91.00,35.00,APPROVED
NE: OMAHA,01/04/2016 15:24:00,,2167.00,1364.00,360.00,226.00,117.00,152.00,91.00,37.00,APPROVED
NE: OMAHA,01/04/2016 16:11:00,,2154.00,1358.00,364.00,227.00,121.00,152.00,93.00,36.00,APPROVED
NE: OMAHA,01/04/2016 17:16:00,,2067.00,1204.00,318.00,170.00,103.00,124.00,79.00,31.00,APPROVED
NE: OMAHA,01/04/2016 18:16:00,,2185.00,1351.00,354.00,215.00,116.00,147.00,87.00,34.00,APPROVED
NE: OMAHA,01/04/2016 19:17:00,,2153.00,1339.00,350.00,212.00,115.00,145.00,87.00,33.00,APPROVED
NE: OMAHA,01/04/2016 20:17:00,,2106.00,1303.00,344.00,206.00,116.00,140.00,86.00,34.00,APPROVED
NE: OMAHA,01/04/2016 21:17:00,,2093.00,1267.00,332.00,196.00,110.00,134.00,85.00,33.00,APPROVED
NE: OMAHA,01/04/2016 22:17:00,,2083.00,1241.00,332.00,190.00,109.00,132.00,83.00,32.00,APPROVED
NE: OMAHA,01/04/2016 23:17:00,,2083.00,1250.00,327.00,190.00,109.00,132.00,81.00,32.00,APPROVED
NE: OMAHA,01/05/2016 00:18:00,,2068.00,1237.00,331.00,195.00,107.00,130.00,84.00,33.00,APPROVED
NE: OMAHA,01/05/2016 01:18:00,,2054.00,1209.00,322.00,183.00,104.00,127.00,80.00,32.00,APPROVED
NE: OMAHA,01/05/2016 02:18:00,,2054.00,1209.00,320.00,178.00,105.00,125.00,82.00,31.00,APPROVED
NE: OMAHA,01/05/2016 03:18:00,,2048.00,1196.00,321.00,180.00,106.00,129.00,81.00,31.00,APPROVED
NE: OMAHA,01/05/2016 04:18:00,,2051.00,1195.00,318.00,179.00,103.00,126.00,77.00,30.00,APPROVED
NE: OMAHA,01/05/2016 05:19:00,,2044.00,1214.00,320.00,181.00,106.00,127.00,81.00,32.00,APPROVED
NE: OMAHA,01/05/2016 06:19:00,,2059.00,1216.00,322.00,183.00,107.00,128.00,81.00,33.00,APPROVED
NE: OMAHA,01/05/2016 07:19:00,,2073.00,1237.00,325.00,183.00,109.00,130.00,81.00,33.00,APPROVED
NE: OMAHA,01/05/2016 08:19:00,,2073.00,1255.00,331.00,188.00,108.00,131.00,81.00,33.00,APPROVED
NE: OMAHA,01/05/2016 09:20:00,,2083.00,1258.00,337.00,196.00,109.00,133.00,84.00,34.00,APPROVED
NE: OMAHA,01/05/2016 10:20:00,,2077.00,1271.00,333.00,196.00,109.00,133.00,85.00,33.00,APPROVED
NE: OMAHA,01/05/2016 11:20:00,,2087.00,1269.00,335.00,196.00,110.00,134.00,85.00,34.00,APPROVED
NE: OMAHA,01/05/2016 12:20:00,,2081.00,1268.00,337.00,201.00,110.00,135.00,86.00,34.00,APPROVED
NE: OMAHA,01/05/2016 13:20:00,,2090.00,1280.00,338.00,195.00,113.00,137.00,85.00,34.00,APPROVED
NE: OMAHA,01/05/2016 14:21:00,,2081.00,1273.00,339.00,200.00,113.00,140.00,84.00,33.00,APPROVED
NE: OMAHA,01/05/2016 15:21:00,,2089.00,1280.00,339.00,196.00,109.00,136.00,85.00,33.00,APPROVED
NE: OMAHA,01/05/2016 16:21:00,,2100.00,1275.00,337.00,194.00,108.00,136.00,86.00,34.00,APPROVED
NE: OMAHA,01/05/2016 17:21:00,,2134.00,1312.00,341.00,197.00,111.00,135.00,83.00,34.00,APPROVED
NE: OMAHA,01/05/2016 18:21:00,,2164.00,1325.00,348.00,204.00,111.00,140.00,85.00,34.00,APPROVED
NE: OMAHA,01/05/2016 19:22:00,,2176.00,1325.00,346.00,201.00,117.00,142.00,88.00,34.00,APPROVED
NE: OMAHA,01/05/2016 20:22:00,,2176.00,1326.00,348.00,201.00,113.00,140.00,85.00,34.00,APPROVED
NE: OMAHA,01/05/2016 21:22:00,,2162.00,1324.00,346.00,204.00,114.00,138.00,84.00,35.00,APPROVED
NE: OMAHA,01/05/2016 22:22:00,,2166.00,1328.00,345.00,202.00,112.00,140.00,86.00,34.00,APPROVED
NE: OMAHA,01/05/2016 23:22:00,,2170.00,1318.00,346.00,199.00,113.00,138.00,86.00,33.00,APPROVED
NE: OMAHA,01/06/2016 00:23:00,,2175.00,1312.00,345.00,196.00,111.00,140.00,85.00,34.00,APPROVED
NE: OMAHA,01/06/2016 01:23:00,,2148.00,1282.00,342.00,194.00,111.00,136.00,84.00,33.00,APPROVED
NE: OMAHA,01/06/2016 02:23:00,,2135.00,1270.00,341.00,193.00,113.00,133.00,82.00,32.00,APPROVED
NE: OMAHA,01/06/2016 03:23:00,,2118.00,1264.00,331.00,185.00,110.00,133.00,83.00,31.00,APPROVED
NE: OMAHA,01/06/2016 04:23:00,,2121.00,1257.00,330.00,186.00,108.00,132.00,82.00,33.00,APPROVED
NE: OMAHA,01/06/2016 05:24:00,,2125.00,1269.00,336.00,190.00,108.00,132.00,83.00,30.00,APPROVED
NE: OMAHA,01/06/2016 06:24:00,,2116.00,1270.00,334.00,187.00,108.00,133.00,81.00,32.00,APPROVED
NE: OMAHA,01/06/2016 07:24:00,,2115.00,1272.00,335.00,191.00,110.00,131.00,84.00,32.00,APPROVED
NE: OMAHA,01/06/2016 08:24:00,,2103.00,1261.00,337.00,190.00,110.00,131.00,83.00,33.00,APPROVED
NE: OMAHA,01/06/2016 09:24:00,,2113.00,1263.00,334.00,188.00,106.00,135.00,82.00,34.00,APPROVED
NE: OMAHA,01/06/2016 10:25:00,,2114.00,1257.00,333.00,187.00,107.00,133.00,83.00,32.00,APPROVED
NE: OMAHA,01/06/2016 11:25:00,,2111.00,1264.00,329.00,186.00,106.00,134.00,80.00,33.00,APPROVED
NE: OMAHA,01/06/2016 12:25:00,,2123.00,1268.00,337.00,190.00,109.00,131.00,83.00,32.00,APPROVED
NE: OMAHA,01/06/2016 13:25:00,,2130.00,1271.00,340.00,189.00,110.00,133.00,81.00,32.00,APPROVED
NE: OMAHA,01/06/2016 14:25:00,,2129.00,1286.00,344.00,192.00,112.00,134.00,83.00,32.00,APPROVED
NE: OMAHA,01/06/2016 15:26:00,,2143.00,1302.00,342.00,201.00,113.00,138.00,84.00,34.00,APPROVED
NE: OMAHA,01/06/2016 16:26:00,,2392.00,1532.00,399.00,246.00,126.00,161.00,96.00,38.00,APPROVED
NE: OMAHA,01/06/2016 17:26:00,,2628.00,1750.00,467.00,291.00,147.00,190.00,108.00,42.00,APPROVED
NE: OMAHA,01/06/2016 18:26:00,,2359.00,1515.00,409.00,245.00,130.00,164.00,100.00,38.00,APPROVED
NE: OMAHA,01/06/2016 19:26:00,,2258.00,1427.00,382.00,227.00,122.00,155.00,93.00,37.00,APPROVED
NE: OMAHA,01/06/2016 20:27:00,,2270.00,1446.00,387.00,229.00,123.00,157.00,96.00,36.00,APPROVED
NE: OMAHA,01/06/2016 21:27:00,,2199.00,1365.00,367.00,218.00,118.00,148.00,91.00,36.00,APPROVED
NE: OMAHA,01/06/2016 22:27:00,,2348.00,1517.00,408.00,246.00,125.00,166.00,97.00,38.00,APPROVED
NE: OMAHA,01/06/2016 23:27:00,,2379.00,1548.00,414.00,252.00,133.00,169.00,99.00,39.00,APPROVED
NE: OMAHA,01/07/2016 00:27:00,,2366.00,1536.00,412.00,249.00,132.00,168.00,100.00,39.00,APPROVED
NE: OMAHA,01/07/2016 01:28:00,,2345.00,1527.00,414.00,247.00,130.00,165.00,98.00,38.00,APPROVED
NE: OMAHA,01/07/2016 02:28:00,,2352.00,1518.00,405.00,250.00,129.00,166.00,99.00,40.00,APPROVED
NE: OMAHA,01/07/2016 03:28:00,,2375.00,1558.00,416.00,255.00,130.00,170.00,101.00,39.00,APPROVED
NE: OMAHA,01/07/2016 04:28:00,,2390.00,1583.00,422.00,260.00,135.00,174.00,103.00,39.00,APPROVED
NE: OMAHA,01/07/2016 06:29:00,,2489.00,1659.00,444.00,276.00,141.00,181.00,106.00,42.00,APPROVED
NE: OMAHA,01/07/2016 07:29:00,,2323.00,1513.00,402.00,248.00,127.00,169.00,101.00,38.00,APPROVED
NE: OMAHA,01/07/2016 08:29:00,,2286.00,1495.00,400.00,243.00,128.00,165.00,96.00,37.00,APPROVED
NE: OMAHA,01/07/2016 09:29:00,,2264.00,1462.00,393.00,241.00,124.00,162.00,96.00,38.00,APPROVED
NE: OMAHA,01/07/2016 10:29:00,,2241.00,1453.00,390.00,240.00,125.00,160.00,98.00,38.00,APPROVED
NE: OMAHA,01/07/2016 11:30:00,,2284.00,1505.00,403.00,251.00,131.00,170.00,99.00,38.00,APPROVED
NE: OMAHA,01/07/2016 13:30:00,,2260.00,1499.00,402.00,255.00,129.00,169.00,101.00,39.00,APPROVED
NE: OMAHA,01/07/2016 14:30:00,,2250.00,1514.00,406.00,259.00,131.00,172.00,102.00,41.00,APPROVED
NE: OMAHA,01/07/2016 15:30:00,,2263.00,1521.00,407.00,263.00,134.00,175.00,101.00,40.00,APPROVED
NE: OMAHA,01/07/2016 16:31:00,,2275.00,1531.00,405.00,259.00,135.00,175.00,103.00,40.00,APPROVED
NE: OMAHA,01/07/2016 17:31:00,,2264.00,1518.00,406.00,258.00,133.00,172.00,100.00,38.00,APPROVED
NE: OMAHA,01/07/2016 18:31:00,,2300.00,1551.00,415.00,267.00,137.00,174.00,105.00,40.00,APPROVED
NE: OMAHA,01/07/2016 19:31:00,,2531.00,1731.00,459.00,285.00,145.00,196.00,113.00,42.00,APPROVED
NE: OMAHA,01/07/2016 20:31:00,,2728.00,1889.00,503.00,313.00,156.00,206.00,118.00,44.00,APPROVED
NE: OMAHA,01/07/2016 21:32:00,,2818.00,1951.00,513.00,324.00,159.00,213.00,121.00,44.00,APPROVED
NE: OMAHA,01/07/2016 22:32:00,,2921.00,2045.00,537.00,343.00,168.00,220.00,124.00,47.00,APPROVED
NE: OMAHA,01/07/2016 23:32:00,,2874.00,2007.00,521.00,327.00,161.00,218.00,120.00,46.00,APPROVED
NE: OMAHA,01/08/2016 00:32:00,,2743.00,1898.00,505.00,325.00,157.00,207.00,118.00,44.00,APPROVED
NE: OMAHA,01/08/2016 01:32:00,,2680.00,1867.00,492.00,326.00,161.00,209.00,117.00,44.00,APPROVED
NE: OMAHA,01/08/2016 02:33:00,,2721.00,1924.00,506.00,333.00,162.00,213.00,121.00,46.00,APPROVED
NE: OMAHA,01/08/2016 03:33:00,,2581.00,1817.00,486.00,318.00,155.00,210.00,119.00,45.00,APPROVED
NE: OMAHA,01/08/2016 04:33:00,,2593.00,1864.00,493.00,336.00,161.00,211.00,123.00,45.00,APPROVED
NE: OMAHA,01/08/2016 05:33:00,,2739.00,1966.00,524.00,351.00,166.00,229.00,129.00,47.00,APPROVED
NE: OMAHA,01/08/2016 06:33:00,,2612.00,1863.00,496.00,334.00,163.00,216.00,120.00,46.00,APPROVED
NE: OMAHA,01/08/2016 07:34:00,,2679.00,1910.00,503.00,337.00,164.00,214.00,124.00,47.00,APPROVED
NE: OMAHA,01/08/2016 08:34:00,,2753.00,1974.00,516.00,341.00,162.00,221.00,125.00,45.00,APPROVED
NE: OMAHA,01/08/2016 09:34:00,,2554.00,1787.00,472.00,312.00,151.00,200.00,115.00,43.00,APPROVED
NE: OMAHA,01/08/2016 10:34:00,,2598.00,1817.00,479.00,322.00,157.00,209.00,117.00,45.00,APPROVED
NE: OMAHA,01/08/2016 11:34:00,,3066.00,2298.00,595.00,420.00,189.00,259.00,142.00,53.00,APPROVED
NE: OMAHA,01/08/2016 12:35:00,,3254.00,2484.00,657.00,462.00,205.00,286.00,158.00,55.00,APPROVED
NE: OMAHA,01/08/2016 13:35:00,,3166.00,2395.00,638.00,440.00,199.00,278.00,153.00,58.00,APPROVED
NE: OMAHA,01/08/2016 14:35:00,,2820.00,2064.00,550.00,375.00,175.00,242.00,134.00,49.00,APPROVED
NE: OMAHA,01/08/2016 15:35:00,,2766.00,2008.00,533.00,359.00,167.00,230.00,131.00,49.00,APPROVED
NE: OMAHA,01/08/2016 16:35:00,,2548.00,1773.00,475.00,314.00,153.00,204.00,116.00,45.00,APPROVED
NE: OMAHA,01/08/2016 17:36:00,,2424.00,1645.00,441.00,292.00,146.00,189.00,109.00,44.00,APPROVED
NE: OMAHA,01/08/2016 18:36:00,,2399.00,1630.00,428.00,283.00,139.00,182.00,107.00,41.00,APPROVED
NE: OMAHA,01/08/2016 19:36:00,,2388.00,1605.00,423.00,279.00,137.00,182.00,104.00,41.00,APPROVED
NE: OMAHA,01/08/2016 20:36:00,,2384.00,1599.00,425.00,273.00,140.00,179.00,102.00,40.00,APPROVED
NE: OMAHA,01/08/2016 21:36:00,,2561.00,1778.00,464.00,313.00,151.00,204.00,115.00,43.00,APPROVED
NE: OMAHA,01/08/2016 22:37:00,,2471.00,1709.00,454.00,302.00,147.00,201.00,112.00,43.00,APPROVED
NE: OMAHA,01/08/2016 23:37:00,,2441.00,1679.00,446.00,294.00,146.00,190.00,110.00,43.00,APPROVED
NE: OMAHA,01/09/2016 00:37:00,,2344.00,1573.00,411.00,270.00,136.00,177.00,104.00,39.00,APPROVED
NE: OMAHA,01/09/2016 01:37:00,,2288.00,1511.00,398.00,258.00,129.00,168.00,98.00,38.00,APPROVED
NE: OMAHA,01/09/2016 02:37:00,,2276.00,1508.00,394.00,250.00,129.00,172.00,100.00,38.00,APPROVED
NE: OMAHA,01/09/2016 03:38:00,,2290.00,1508.00,398.00,258.00,132.00,169.00,99.00,38.00,APPROVED
NE: OMAHA,01/09/2016 04:38:00,,2323.00,1544.00,407.00,263.00,134.00,175.00,102.00,39.00,APPROVED
NE: OMAHA,01/09/2016 05:38:00,,2342.00,1564.00,414.00,276.00,136.00,173.00,103.00,41.00,APPROVED
NE: OMAHA,01/09/2016 06:38:00,,2358.00,1591.00,422.00,278.00,139.00,181.00,105.00,42.00,APPROVED
NE: OMAHA,01/09/2016 07:38:00,,2297.00,1528.00,405.00,268.00,136.00,175.00,103.00,41.00,APPROVED
NE: OMAHA,01/09/2016 08:39:00,,2224.00,1452.00,381.00,242.00,126.00,162.00,98.00,38.00,APPROVED
NE: OMAHA,01/09/2016 09:39:00,,2166.00,1373.00,362.00,221.00,118.00,152.00,92.00,36.00,APPROVED
NE: OMAHA,01/09/2016 10:39:00,,2125.00,1313.00,348.00,208.00,113.00,141.00,90.00,35.00,APPROVED
NE: OMAHA,01/09/2016 11:39:00,,2122.00,1303.00,341.00,199.00,114.00,139.00,88.00,33.00,APPROVED
NE: OMAHA,01/09/2016 12:39:00,,2121.00,1288.00,338.00,201.00,113.00,139.00,87.00,34.00,APPROVED
NE: OMAHA,01/09/2016 13:40:00,,2107.00,1280.00,338.00,196.00,110.00,136.00,84.00,33.00,APPROVED
NE: OMAHA,01/09/2016 14:40:00,,2066.00,1253.00,333.00,190.00,107.00,132.00,84.00,34.00,APPROVED
NE: OMAHA,01/09/2016 15:40:00,,2036.00,1224.00,327.00,181.00,107.00,129.00,84.00,33.00,APPROVED
NE: OMAHA,01/09/2016 16:31:00,,2038.00,1221.00,329.00,179.00,109.00,127.00,82.00,32.00,APPROVED
NE: OMAHA,01/09/2016 23:09:00,,2016.00,1175.00,316.00,167.00,104.00,120.00,77.00,32.00,APPROVED
NE: OMAHA,01/10/2016 00:09:00,,2019.00,1199.00,320.00,179.00,103.00,123.00,83.00,31.00,APPROVED
NE: OMAHA,01/10/2016 01:49:00,,1985.00,1164.00,313.00,170.00,103.00,120.00,80.00,31.00,APPROVED
NE: OMAHA,01/10/2016 03:17:00,,2003.00,1185.00,317.00,175.00,106.00,124.00,83.00,31.00,APPROVED
NE: OMAHA,01/10/2016 04:17:00,,2010.00,1190.00,317.00,174.00,106.00,125.00,81.00,31.00,APPROVED
NE: OMAHA,01/10/2016 05:17:00,,1986.00,1183.00,315.00,175.00,104.00,127.00,82.00,33.00,APPROVED
NE: OMAHA,01/10/2016 06:17:00,,1985.00,1181.00,316.00,178.00,106.00,123.00,81.00,32.00,APPROVED
NE: OMAHA,01/10/2016 07:18:00,,2001.00,1194.00,317.00,178.00,108.00,128.00,82.00,32.00,APPROVED
NE: OMAHA,01/10/2016 08:18:00,,1997.00,1193.00,319.00,182.00,105.00,127.00,82.00,31.00,APPROVED
NE: OMAHA,01/10/2016 09:18:00,,2002.00,1210.00,319.00,180.00,107.00,128.00,82.00,32.00,APPROVED
NE: OMAHA,01/10/2016 10:18:00,,2017.00,1227.00,326.00,188.00,108.00,131.00,84.00,33.00,APPROVED
NE: OMAHA,01/10/2016 11:18:00,,2028.00,1241.00,332.00,189.00,111.00,134.00,86.00,32.00,APPROVED
NE: OMAHA,01/10/2016 12:19:00,,2041.00,1239.00,331.00,193.00,110.00,134.00,85.00,32.00,APPROVED
NE: OMAHA,01/10/2016 13:19:00,,2041.00,1240.00,332.00,187.00,110.00,133.00,84.00,34.00,APPROVED
NE: OMAHA,01/10/2016 14:19:00,,2043.00,1239.00,330.00,191.00,109.00,133.00,83.00,34.00,APPROVED
NE: OMAHA,01/10/2016 16:19:00,,2076.00,1238.00,327.00,189.00,106.00,130.00,84.00,34.00,APPROVED
NE: OMAHA,01/10/2016 17:20:00,,2060.00,1219.00,322.00,179.00,105.00,127.00,83.00,31.00,APPROVED
NE: OMAHA,01/10/2016 18:20:00,,2046.00,1208.00,319.00,176.00,104.00,123.00,77.00,31.00,APPROVED
NE: OMAHA,01/10/2016 19:20:00,,2037.00,1192.00,319.00,171.00,102.00,122.00,80.00,30.00,APPROVED
NE: OMAHA,01/10/2016 20:20:00,,2043.00,1207.00,319.00,176.00,106.00,126.00,81.00,31.00,APPROVED
NE: OMAHA,01/10/2016 21:20:00,,2070.00,1217.00,329.00,177.00,107.00,124.00,79.00,30.00,APPROVED
NE: OMAHA,01/10/2016 22:21:00,,2090.00,1243.00,331.00,184.00,107.00,129.00,81.00,31.00,APPROVED
NE: OMAHA,01/10/2016 23:21:00,,2118.00,1273.00,336.00,191.00,108.00,134.00,83.00,32.00,APPROVED
NE: OMAHA,01/11/2016 00:21:00,,2136.00,1291.00,344.00,196.00,112.00,133.00,86.00,33.00,APPROVED
NE: OMAHA,01/11/2016 01:21:00,,2155.00,1322.00,348.00,198.00,112.00,141.00,86.00,32.00,APPROVED
NE: OMAHA,01/11/2016 02:21:00,,2173.00,1345.00,350.00,206.00,116.00,145.00,88.00,34.00,APPROVED
NE: OMAHA,01/11/2016 03:22:00,,2194.00,1366.00,357.00,215.00,118.00,146.00,89.00,35.00,APPROVED
NE: OMAHA,01/11/2016 04:22:00,,2228.00,1412.00,367.00,224.00,123.00,149.00,92.00,38.00,APPROVED
NE: OMAHA,01/11/2016 05:22:00,,2250.00,1435.00,377.00,234.00,122.00,158.00,94.00,37.00,APPROVED
NE: OMAHA,01/11/2016 06:22:00,,2294.00,1485.00,391.00,244.00,128.00,161.00,97.00,38.00,APPROVED
NE: OMAHA,01/11/2016 07:22:00,,2340.00,1520.00,396.00,247.00,130.00,165.00,99.00,38.00,APPROVED
NE: OMAHA,01/11/2016 08:23:00,,2360.00,1555.00,409.00,257.00,135.00,168.00,101.00,39.00,APPROVED
NE: OMAHA,01/11/2016 09:23:00,,2401.00,1581.00,413.00,263.00,138.00,173.00,104.00,40.00,APPROVED
NE: OMAHA,01/11/2016 10:23:00,,2465.00,1634.00,423.00,275.00,141.00,180.00,106.00,41.00,APPROVED
NE: OMAHA,01/11/2016 11:23:00,,2484.00,1652.00,433.00,279.00,142.00,183.00,108.00,43.00,APPROVED
NE: OMAHA,01/11/2016 12:23:00,,2526.00,1705.00,440.00,290.00,144.00,186.00,112.00,41.00,APPROVED
NE: OMAHA,01/11/2016 13:24:00,,2548.00,1746.00,450.00,300.00,149.00,195.00,113.00,43.00,APPROVED
NE: OMAHA,01/11/2016 14:24:00,,2598.00,1785.00,459.00,310.00,151.00,198.00,117.00,44.00,APPROVED
NE: OMAHA,01/11/2016 15:24:00,,2614.00,1802.00,469.00,315.00,152.00,203.00,115.00,45.00,APPROVED
NE: OMAHA,01/11/2016 16:00:00,,2660.00,1830.00,473.00,312.00,158.00,206.00,119.00,46.00,APPROVED